Weather History for Milwaukee, WI

Change the Weather History Date:

Monday, October 14, 2013

  Actual Average Record
Temperature  
Mean Temperature 50 °F 52 °F  
Max Temperature 59 °F 60 °F 87 °F (1897)
Min Temperature 41 °F 44 °F 26 °F (1937)
Degree Days  
Heating Degree Days 15 13  
Month to date heating degree days 81 156  
Since 1 July heating degree days 211 308  
Cooling Degree Days 0 0  
Month to date cooling degree days 10 3  
Year to date cooling degree days 688 637  
Moisture  
Dew Point 42 °F    
Average Humidity 73    
Maximum Humidity 89    
Minimum Humidity 57    
Precipitation  
Precipitation 0.00 in 0.08 in 1.25 in (1886)
Month to date precipitation 2.32 1.22  
Year to date precipitation 33.99 28.58  
Snow  
Snow 0.00 in 0.00 in T in (1991)
Month to date snowfall 0.0 0.1  
Since 1 July snowfall 0.0 0.1  
Since 1 September snowfall 0.0 0.1  
Snow Depth 0.00 in    
Sea Level Pressure  
Sea Level Pressure 30.35 in    
Wind  
Wind Speed 8 mph (East)    
Max Wind Speed 15 mph    
Max Gust Speed 18 mph    
Visibility 10 miles    
Events      
T = Trace of Precipitation, MM = Missing Value Source: NWS Daily Summary

Daily Weather History Graph

Daily Weather History Graph

Search for Another Location

Airport:

Trip Planner

Search our weather history database for the weather conditions in past years. The results will help you decide how hot, cold, wet, or windy it might be!

Date:

Astronomy

Oct. 14, 2013 Rise Set
Actual Time 7:04 AM CDT 6:10 PM CDT
Civil Twilight 6:35 AM CDT 6:38 PM CDT
Nautical Twilight 6:02 AM CDT 7:11 PM CDT
Astronomical Twilight 5:29 AM CDT 7:44 PM CDT
Moon 3:45 PM CDT (10/14) 2:13 AM CDT (10/14)
Length of Visible Light 12h 03m
Length of Day
11h 05m
Waxing Gibbous, 79% of the Moon is Illuminated
Oct 14
Waxing Gibbous
Oct 18
Full
Oct 26
Last Quarter
Nov 3
New
Nov 9
First Quarter

Hourly Weather History & Observations

Time (CDT) Temp. Windchill Dew Point Humidity Pressure Visibility Wind Dir Wind Speed Gust Speed Precip Events Conditions
12:52 AM 42.1 °F - 39.0 °F 89% 30.42 in 10.0 mi Calm Calm - N/A   Clear
1:52 AM 43.0 °F - 39.9 °F 89% 30.42 in 10.0 mi Calm Calm - N/A   Clear
2:52 AM 42.1 °F 39.2 °F 37.9 °F 85% 30.43 in 10.0 mi NW 4.6 mph - N/A   Clear
3:52 AM 44.1 °F 42.5 °F 39.0 °F 82% 30.42 in 10.0 mi WNW 3.5 mph - N/A   Clear
4:52 AM 42.1 °F - 37.9 °F 85% 30.44 in 10.0 mi Calm Calm - N/A   Clear
5:52 AM 43.0 °F 41.3 °F 37.9 °F 82% 30.44 in 10.0 mi NW 3.5 mph - N/A   Mostly Cloudy
6:52 AM 45.0 °F 42.6 °F 39.0 °F 80% 30.44 in 10.0 mi WNW 4.6 mph - N/A   Mostly Cloudy
7:52 AM 46.9 °F - 39.9 °F 77% 30.43 in 10.0 mi Calm Calm - N/A   Mostly Cloudy
8:52 AM 51.1 °F - 44.1 °F 77% 30.41 in 10.0 mi NE 4.6 mph - N/A   Mostly Cloudy
9:52 AM 57.0 °F - 44.1 °F 62% 30.40 in 10.0 mi East 12.7 mph - N/A   Mostly Cloudy
10:52 AM 57.9 °F - 43.0 °F 58% 30.41 in 10.0 mi East 10.4 mph - N/A   Mostly Cloudy
11:52 AM 57.0 °F - 43.0 °F 59% 30.41 in 10.0 mi East 10.4 mph - N/A   Mostly Cloudy
12:52 PM 57.0 °F - 43.0 °F 59% 30.38 in 10.0 mi ESE 13.8 mph - N/A   Mostly Cloudy
1:52 PM 57.9 °F - 44.1 °F 60% 30.35 in 10.0 mi East 12.7 mph - N/A   Mostly Cloudy
2:52 PM 57.0 °F - 43.0 °F 59% 30.32 in 10.0 mi East 11.5 mph - N/A   Scattered Clouds
3:52 PM 57.0 °F - 43.0 °F 59% 30.30 in 10.0 mi East 12.7 mph - N/A   Scattered Clouds
4:52 PM 55.9 °F - 43.0 °F 62% 30.29 in 10.0 mi East 11.5 mph - N/A   Scattered Clouds
5:52 PM 53.1 °F - 43.0 °F 69% 30.27 in 10.0 mi East 8.1 mph - N/A   Scattered Clouds
6:52 PM 51.1 °F - 43.0 °F 74% 30.26 in 10.0 mi ESE 5.8 mph - N/A   Mostly Cloudy
7:52 PM 50.0 °F - 43.0 °F 77% 30.26 in 10.0 mi ESE 5.8 mph - N/A   Scattered Clouds
8:52 PM 53.1 °F - 45.0 °F 74% 30.24 in 10.0 mi East 9.2 mph - N/A   Partly Cloudy
9:52 PM 53.1 °F - 46.0 °F 77% 30.21 in 10.0 mi East 10.4 mph - N/A   Partly Cloudy
10:52 PM 54.0 °F - 46.0 °F 75% 30.19 in 10.0 mi ESE 10.4 mph - N/A   Scattered Clouds
11:52 PM 54.0 °F - 46.9 °F 77% 30.17 in 10.0 mi SE 9.2 mph - N/A   Mostly Cloudy